GFSGBSN_sfc_30mbdewp_054.txt.gz
Dewpoint
51 49 51 51 50 52 52 53 54 55 55 58 58 57 57 56 55 55 54 53 53 52 53 53 54 53 48 30 23 31 50 57 49 39 28 25 27 26 22 23 19 14 19 24 26 37 40
49 50 50 50 50 50 50 51 53 55 54 54 57 58 57 56 55 55 54 53 52 52 52 53 54 52 44 21 27 43 39 42 37 32 30 26 25 26 25 24 21 23 25 35 39 38 39
48 48 49 50 49 50 50 50 51 53 54 53 54 57 57 56 55 55 54 53 52 51 52 53 53 50 43 24 36 37 39 35 36 32 24 26 27 26 26 25 25 26 20 33 38 38 38
49 48 48 48 50 50 50 50 51 51 53 53 52 55 57 57 55 55 54 52 52 51 52 53 52 48 29 35 42 43 41 37 36 34 27 25 28 27 28 28 26 24 16 25 32 37 37
48 49 48 47 48 49 48 49 49 51 52 53 52 51 55 57 56 55 53 52 51 52 53 53 48 46 27 38 31 33 38 32 32 34 31 28 29 28 28 25 22 21 15 17 28 35 35
47 49 48 48 47 48 49 49 46 48 51 52 52 52 52 56 56 55 52 51 51 52 52 52 48 39 31 24 32 34 40 35 29 31 32 31 30 26 28 26 18 22 22 22 18 28 32
44 47 49 47 48 47 47 49 49 47 49 51 51 52 52 53 56 54 50 45 37 43 47 38 34 28 22 35 39 32 33 32 31 30 27 34 29 24 26 28 27 25 23 20 19 20 27
43 44 46 49 46 47 47 48 49 49 48 50 51 52 51 53 56 52 50 40 38 42 37 40 41 38 35 39 36 35 30 24 25 23 33 29 27 27 29 30 26 25 23 22 21 24 23
42 42 44 45 48 47 47 47 48 48 48 48 50 51 51 52 53 51 47 42 45 47 38 34 38 38 37 39 34 33 28 26 24 24 28 27 25 28 29 26 23 23 23 23 23 24 21
43 42 42 43 46 48 47 46 47 48 47 47 48 49 49 54 50 47 44 47 48 47 28 23 35 39 41 39 28 36 28 26 30 22 30 29 29 26 27 26 25 21 26 26 26 24 19
44 43 42 42 44 47 48 45 46 48 48 47 46 49 49 53 46 45 46 47 48 45 5 17 39 41 40 29 24 29 29 25 25 26 28 23 27 26 25 24 27 23 27 27 27 24 23
45 44 43 42 42 44 48 47 46 46 49 47 46 48 50 52 50 47 48 49 47 34 12 16 35 34 33 24 22 26 26 25 26 29 30 26 32 28 26 30 28 29 28 28 29 26 19
46 45 43 43 42 43 45 48 46 45 48 47 46 47 50 51 47 49 49 45 37 28 21 22 30 28 25 21 18 23 24 21 21 21 23 25 26 29 31 27 29 27 24 19 18 19 17
46 46 44 43 42 42 43 47 47 46 47 47 47 46 50 50 50 48 49 42 29 28 26 30 26 25 21 17 19 19 21 21 21 21 23 21 21 26 30 27 24 26 24 20 15 15 15
45 46 45 43 43 41 42 44 47 46 47 47 47 46 47 47 51 47 45 35 28 30 31 25 22 20 18 18 17 21 21 19 20 22 17 22 20 32 32 33 29 28 23 26 25 29 24
45 46 46 44 43 41 41 42 47 46 46 47 45 42 41 48 53 46 40 33 33 33 35 35 24 20 17 18 19 19 20 21 19 21 22 23 17 31 32 32 31 27 29 23 23 18 16
46 45 46 45 43 42 41 42 45 46 45 45 43 37 38 49 51 44 34 33 35 35 35 33 35 31 21 20 20 20 17 20 21 21 23 25 19 23 30 27 23 27 25 24 23 20 15
46 45 46 45 43 42 41 41 42 47 45 43 41 30 43 49 40 39 36 34 35 35 36 35 36 36 32 23 21 20 19 19 22 23 20 27 22 18 21 29 29 26 25 24 21 19 23
47 46 46 46 43 42 41 41 41 46 44 40 36 32 48 44 32 34 36 35 35 34 35 33 33 36 36 28 20 22 22 23 24 23 22 28 22 16 18 24 32 28 29 28 27 25 22
46 46 46 46 44 42 41 40 41 46 43 41 36 28 40 42 36 33 33 32 32 36 35 36 35 34 33 31 30 22 22 29 30 24 28 27 26 17 14 15 22 26 28 29 27 23 22
44 46 46 46 44 42 41 41 40 45 44 41 37 28 35 32 33 36 32 31 32 31 35 35 34 33 33 30 28 25 29 33 34 34 30 25 19 25 21 21 23 21 22 27 26 25 22
43 44 46 45 44 42 41 40 40 45 44 40 34 30 36 35 32 33 35 31 31 33 33 32 31 32 32 31 30 28 32 32 29 32 30 30 23 24 23 25 25 23 23 25 24 24 24
42 44 46 44 44 42 40 40 42 44 44 39 38 40 36 31 33 30 31 32 31 34 35 33 32 30 30 31 34 34 36 35 33 31 30 27 25 23 21 25 24 22 23 23 23 23 23
42 41 46 44 43 42 40 41 43 43 43 40 38 39 36 30 32 30 29 34 32 33 32 34 35 32 32 35 36 36 36 36 35 35 33 28 25 24 21 23 20 23 27 26 25 24 22
43 43 45 44 43 41 40 41 43 42 41 41 39 38 38 31 33 32 31 30 32 33 34 34 34 33 32 29 25 27 32 32 33 36 35 33 26 23 20 21 21 22 23 22 21 19 24
43 45 44 43 42 40 41 42 42 43 42 42 42 42 40 34 33 34 32 32 31 32 32 34 35 36 36 33 30 23 27 30 29 31 35 32 29 22 23 18 16 20 24 24 22 17 26
44 44 42 42 41 41 42 41 41 41 42 41 41 41 39 35 39 38 33 32 33 33 31 32 33 34 39 32 30 29 25 32 29 28 31 30 28 21 23 20 24 28 26 24 17 18 26
43 42 42 40 41 41 41 40 41 41 41 41 40 42 40 37 38 42 41 37 35 34 31 33 35 39 40 34 33 33 30 31 30 31 32 28 27 26 26 24 22 27 24 20 22 28 30
41 40 40 41 41 41 41 40 41 41 41 41 38 44 43 38 39 41 41 41 40 37 35 39 33 37 36 37 35 33 31 31 30 27 31 30 30 28 29 28 32 31 27 30 30 31 33

GFSGBSN_sfc_30mbdewp_057.txt.gz
Dewpoint
48 48 49 51 50 49 47 47 51 52 54 54 55 55 58 58 57 56 55 54 53 53 52 53 54 54 47 30 24 32 56 56 48 40 27 23 25 26 23 23 20 15 17 23 23 31 38
49 48 48 48 49 49 49 49 47 50 52 53 53 53 55 58 57 56 55 54 53 53 52 52 53 53 43 22 26 40 46 42 37 32 29 26 26 27 25 25 22 22 23 31 39 38 40
49 49 48 48 47 49 49 48 49 49 50 51 53 53 53 56 57 57 55 55 53 53 52 52 53 50 42 27 38 38 40 36 36 32 25 26 26 26 27 26 26 26 24 30 38 38 38
47 50 49 49 48 47 47 49 48 49 49 51 52 52 51 52 56 57 55 54 53 53 52 53 53 48 33 35 40 40 41 36 37 35 29 27 29 28 28 29 27 24 16 20 31 37 37
45 46 48 50 48 47 47 47 48 48 48 49 52 52 52 51 53 56 56 54 53 52 53 53 48 44 30 36 28 33 37 26 34 35 32 29 30 29 29 26 22 24 16 17 25 36 36
41 43 45 47 50 47 47 47 47 47 46 47 49 51 51 52 52 55 55 53 50 52 52 51 48 39 36 23 30 35 40 34 30 33 33 32 30 28 29 26 17 21 22 22 19 25 33
43 42 43 45 47 48 47 47 46 47 46 46 48 50 51 52 52 55 51 47 34 40 48 38 35 34 23 33 39 35 37 33 32 30 28 34 28 26 25 28 27 25 24 21 21 22 32
46 45 44 43 45 46 49 47 47 46 47 46 45 49 50 51 51 54 50 46 37 43 39 41 41 40 37 38 36 35 33 27 26 24 32 29 28 29 27 29 28 25 23 22 23 25 25
46 46 45 44 42 44 46 49 46 46 47 47 46 47 49 50 53 52 48 47 45 46 42 40 39 38 37 38 34 31 30 26 24 24 29 27 26 28 29 27 26 24 22 24 24 25 22
46 46 45 45 44 43 45 47 49 46 46 47 46 45 47 48 50 49 47 47 47 47 36 26 32 36 40 38 29 35 28 27 29 22 27 26 29 27 27 26 26 21 25 26 25 24 19
45 45 45 45 45 44 43 44 47 48 45 47 47 46 47 49 47 45 45 49 48 43 8 19 38 41 40 31 27 32 29 26 24 26 29 22 27 27 26 25 27 24 28 27 27 25 24
45 45 45 45 45 44 43 43 46 48 46 46 48 46 46 48 50 48 49 49 46 35 16 17 37 36 35 34 24 29 27 26 30 29 30 25 31 28 26 29 28 29 29 27 28 26 20
46 46 46 46 45 45 44 44 44 46 47 46 47 47 46 48 44 50 50 45 36 29 27 20 32 32 30 26 21 25 25 24 23 22 23 25 26 29 30 27 29 27 24 20 20 20 17
46 46 46 46 46 46 45 44 43 46 46 45 47 47 46 48 51 49 48 41 29 28 28 29 28 30 22 20 20 22 24 23 23 22 23 19 18 26 30 27 25 26 25 21 15 15 16
46 46 46 46 46 46 45 44 43 45 47 45 47 46 45 46 49 49 45 33 25 28 31 25 22 25 24 18 19 21 23 22 22 23 18 21 19 30 32 32 28 28 24 27 25 28 24
47 47 46 46 46 46 45 44 43 44 47 46 42 43 42 45 49 48 39 31 32 32 35 35 26 22 23 18 18 19 21 22 22 23 24 23 18 31 32 33 32 28 29 24 25 18 17
45 47 47 46 46 46 45 44 43 44 46 45 41 37 39 46 49 42 33 30 32 35 35 33 35 34 21 19 19 20 20 20 22 22 23 24 20 23 30 28 25 28 26 25 24 22 17
45 45 47 46 46 46 46 44 43 44 46 44 39 31 39 45 36 37 33 33 33 33 36 34 35 35 33 23 21 19 18 19 23 23 21 25 22 19 21 29 29 28 26 25 22 20 24
44 44 45 47 46 46 46 44 42 43 45 42 36 36 42 40 29 31 33 33 32 34 34 34 33 35 36 31 20 22 22 23 25 23 23 27 22 16 18 24 31 28 28 27 27 26 22
44 44 44 46 47 47 46 44 42 43 45 41 36 30 38 38 33 30 31 31 33 34 35 35 34 34 33 30 31 22 23 27 27 24 27 26 24 18 15 16 21 25 28 29 26 24 24
43 44 43 45 46 47 46 44 42 43 45 41 36 31 33 30 31 31 30 29 29 31 33 36 34 33 33 25 30 26 30 33 33 32 29 25 19 22 19 19 22 21 23 28 27 26 24
44 43 43 43 44 47 46 44 42 43 44 39 33 33 33 32 31 31 31 31 29 31 33 32 32 34 32 30 30 29 30 31 30 33 30 29 20 24 21 25 23 20 22 26 28 26 26
43 43 43 44 46 46 45 44 43 42 45 38 39 37 30 30 32 29 29 28 31 31 33 33 32 32 32 33 34 33 35 35 35 32 31 29 25 23 20 25 24 22 23 24 25 26 25
42 43 43 44 45 46 44 43 43 42 43 40 37 38 31 28 31 29 27 30 30 32 32 33 35 32 32 33 34 36 36 35 37 36 34 30 27 26 21 24 20 23 27 26 24 24 25
42 44 43 44 46 46 44 43 42 42 42 40 38 37 32 27 32 30 27 29 33 33 33 33 34 35 35 32 27 23 25 32 34 36 34 31 27 23 22 22 23 21 22 24 23 20 24
44 43 43 44 46 44 43 43 41 41 44 40 39 42 38 29 30 31 28 28 31 32 33 34 36 38 35 33 27 23 19 28 29 32 34 31 29 26 23 20 19 22 23 25 22 17 23
42 40 42 44 45 44 43 42 41 42 45 40 42 42 39 30 38 35 31 30 31 33 32 34 33 34 36 31 28 29 23 32 31 29 31 29 27 25 23 21 22 25 27 24 19 20 24
41 42 45 45 44 43 42 41 42 43 44 40 41 43 41 36 38 41 41 34 32 32 30 33 33 34 36 30 29 28 30 29 29 31 31 28 26 24 24 22 20 29 24 21 25 26 27
45 44 44 43 43 42 42 41 42 43 44 42 39 42 44 39 39 41 41 41 39 34 33 35 31 34 35 32 32 32 30 31 31 24 33 30 29 26 26 25 31 28 27 28 28 28 31

GFSGBSN_sfc_30mbdewp_060.txt.gz
Dewpoint
50 48 48 48 48 49 48 49 48 47 49 50 52 53 54 54 58 58 57 55 55 54 53 52 53 54 45 31 25 35 55 58 45 38 26 20 17 21 19 19 23 21 18 21 25 32 28
47 50 50 48 47 48 47 49 48 48 48 49 50 51 53 53 55 57 57 56 55 54 53 53 52 53 42 26 26 41 44 41 34 32 26 21 25 27 25 24 24 23 22 24 33 32 35
44 46 48 51 49 47 46 47 47 48 48 48 49 51 52 52 52 55 57 56 55 54 54 53 53 48 41 31 31 36 38 36 34 30 24 25 26 27 28 24 27 26 23 24 34 34 36
42 43 44 47 49 50 48 46 46 47 48 48 48 51 52 52 51 52 55 56 55 55 53 53 53 47 33 34 34 35 37 36 35 33 30 28 28 30 29 29 26 22 21 16 31 35 38
44 44 43 44 46 49 50 48 46 45 47 47 47 49 50 51 51 52 54 56 55 53 52 53 48 44 30 35 34 30 31 34 34 34 34 28 30 30 30 23 18 17 15 14 27 34 34
45 44 45 45 45 46 48 50 47 46 45 47 47 47 48 50 51 52 54 54 53 51 51 50 47 41 34 24 28 36 34 29 31 33 32 31 30 27 26 22 12 11 16 16 15 28 33
45 47 46 46 45 45 45 47 50 47 46 45 46 46 47 49 51 51 53 51 45 42 47 34 35 32 27 31 38 34 36 31 27 31 27 32 26 23 20 22 27 22 19 17 19 23 29
44 45 47 47 46 45 43 44 46 50 47 46 46 46 46 49 50 52 53 47 44 44 38 38 38 36 37 36 33 35 35 26 27 27 29 30 24 24 27 27 27 24 18 17 22 24 25
45 45 45 46 47 46 45 44 45 48 49 46 46 46 46 48 50 52 50 47 46 45 39 36 37 34 31 36 30 28 32 25 25 26 26 23 24 28 28 27 26 24 21 20 20 24 24
46 45 45 45 46 47 46 45 45 46 49 47 46 46 46 47 46 48 48 48 48 48 34 26 34 35 34 32 30 29 32 24 24 24 24 24 26 27 26 25 24 21 23 23 22 20 16
46 46 46 46 46 46 46 45 45 45 48 48 46 47 46 46 49 46 47 50 50 47 5 21 34 37 35 25 24 26 29 26 21 23 26 22 26 26 23 22 25 21 26 25 24 22 23
47 46 46 46 46 46 46 46 45 44 45 48 47 46 46 44 44 48 48 51 47 33 12 18 36 36 34 30 26 28 27 27 22 24 26 22 29 27 24 27 27 28 27 27 27 24 19
47 47 46 46 46 46 46 46 45 44 44 46 47 46 47 41 41 47 51 47 34 20 19 15 33 35 29 24 25 24 23 24 20 20 21 23 23 26 29 26 29 27 24 20 21 20 17
47 47 47 47 46 46 46 46 46 45 44 46 47 46 46 44 42 50 48 42 22 10 18 27 29 31 28 21 22 23 23 20 20 19 17 18 17 23 28 25 24 25 23 19 14 15 16
47 47 47 47 47 47 46 46 46 45 44 45 47 46 44 46 43 51 44 32 14 18 22 21 25 30 25 20 20 23 22 19 20 21 17 17 15 26 28 29 27 27 23 26 25 29 23
47 47 47 47 47 47 46 46 46 45 44 46 42 43 41 46 45 45 39 26 20 24 27 33 19 26 27 20 19 20 21 22 21 22 20 22 16 26 31 31 31 29 27 23 24 18 15
47 47 47 47 47 47 46 46 46 45 44 46 42 38 38 45 45 39 32 26 25 28 33 32 27 30 23 22 19 20 21 21 23 24 22 22 20 28 31 27 23 27 25 26 24 22 17
44 45 46 47 47 47 47 46 46 45 45 45 38 31 42 44 33 35 31 28 26 26 34 34 35 35 33 23 18 15 18 18 23 22 22 23 20 19 21 29 29 26 24 25 20 19 24
44 44 45 47 47 47 48 47 47 45 45 42 35 36 44 40 27 29 31 30 26 28 27 33 32 33 37 33 21 19 19 22 24 22 21 24 21 18 19 25 29 24 25 24 25 26 19
43 43 44 45 45 45 45 47 47 46 45 42 37 30 37 39 30 28 28 26 26 28 29 32 33 33 32 30 32 24 23 28 28 25 27 27 20 19 17 15 17 21 23 23 23 21 18
42 42 43 44 45 45 46 47 47 46 45 40 37 32 34 29 31 25 26 25 25 26 30 34 32 32 29 28 31 30 27 33 29 31 26 26 19 21 18 17 15 16 15 19 19 20 15
44 44 43 43 44 44 45 47 47 46 45 39 34 28 34 28 30 27 26 27 23 24 26 28 29 30 32 31 31 30 29 31 30 33 28 30 20 23 21 20 20 17 18 17 20 19 23
44 44 44 44 44 44 45 47 47 45 45 37 39 31 30 26 28 27 26 26 24 25 28 27 31 32 33 31 33 33 33 32 32 33 32 29 25 24 19 24 24 23 23 19 21 25 24
43 44 44 44 43 44 45 44 46 45 44 38 39 32 30 24 28 26 24 24 23 25 26 30 30 31 32 35 32 33 34 32 32 35 36 33 28 28 20 26 22 21 27 24 22 22 23
42 43 43 44 44 44 44 44 45 44 44 39 39 36 28 26 26 27 25 23 24 27 27 28 35 33 36 32 28 22 25 28 31 33 36 36 31 29 27 23 20 23 24 25 24 22 24
45 43 43 43 44 44 44 45 45 44 44 41 39 39 33 27 25 25 29 24 24 26 29 29 34 39 37 36 30 16 10 17 27 33 35 34 34 30 27 23 22 21 24 27 27 22 23
45 44 42 43 44 44 44 45 44 44 43 41 40 42 35 28 26 28 29 28 26 27 30 31 36 35 36 33 32 28 19 25 24 30 32 32 32 30 29 27 25 27 26 26 21 22 26
43 43 43 44 44 44 45 44 43 43 44 41 40 43 37 30 30 37 32 29 27 31 31 32 34 34 36 32 29 29 33 26 28 27 32 30 30 30 30 29 25 29 26 22 25 32 29
42 43 43 44 44 45 44 44 43 43 43 42 39 43 43 34 38 42 43 41 31 31 32 36 28 31 33 30 31 28 34 36 25 24 34 32 32 32 30 28 35 30 27 29 33 29 32

GFSGBSN_sfc_30mbdewp_063.txt.gz
Dewpoint
47 48 49 51 49 48 47 48 49 48 48 47 48 49 50 52 53 55 56 57 57 56 55 54 54 53 46 33 29 40 47 55 38 36 31 22 16 15 16 16 16 16 14 15 16 19 25
45 45 46 48 49 51 47 48 47 48 47 46 48 49 50 51 52 53 54 56 57 56 55 55 54 52 41 32 26 32 37 47 36 35 28 21 14 16 22 19 19 18 20 16 18 23 26
44 45 45 46 47 48 50 49 47 47 46 47 46 48 50 51 52 52 52 53 56 56 55 55 54 49 42 36 31 29 35 35 34 31 24 19 22 24 23 22 21 21 18 17 18 23 22
46 46 45 44 45 46 48 50 50 47 46 46 47 47 48 50 50 51 51 52 55 56 55 53 53 47 40 35 32 29 30 34 34 30 27 23 26 28 26 23 22 18 16 14 22 22 25
47 47 46 46 45 45 46 47 50 50 47 46 47 47 46 48 49 50 52 52 53 55 53 52 50 46 34 35 32 29 27 28 34 31 29 28 28 26 25 21 16 14 11 18 26 23 26
43 45 47 47 46 46 46 46 47 49 49 46 46 46 46 47 49 50 51 51 50 52 51 50 46 40 37 25 26 26 26 26 32 31 30 30 28 25 24 20 13 12 9 15 11 26 22
43 44 45 46 48 47 46 46 46 47 49 49 46 46 46 46 48 50 49 47 45 47 47 34 29 26 25 27 31 30 25 28 29 30 26 27 24 21 20 21 18 20 14 12 17 20 22
45 44 45 45 45 47 47 46 45 45 47 48 48 46 46 46 47 49 51 43 37 44 32 35 37 32 33 32 32 28 26 25 26 25 25 26 23 21 22 21 23 20 17 13 17 19 21
46 46 46 46 45 46 46 47 46 46 45 47 49 47 46 46 47 45 46 43 43 45 37 28 28 30 27 27 29 28 27 24 23 23 23 23 22 22 24 21 21 21 18 22 20 26 20
47 47 46 47 47 46 46 47 47 46 45 46 48 48 46 46 42 37 42 45 45 48 30 14 31 30 27 24 26 27 27 23 22 21 22 22 22 23 22 22 22 20 20 19 19 17 16
47 47 47 47 47 47 47 46 46 47 46 46 48 48 46 46 41 42 41 43 47 48 1 14 27 33 29 25 14 20 25 20 19 20 22 20 20 23 22 22 22 20 25 21 20 21 21
47 47 47 47 47 47 47 47 46 46 46 46 48 48 47 45 42 43 48 47 48 29 5 14 30 29 31 28 20 19 21 25 19 19 21 20 21 22 22 21 23 23 23 22 21 21 21
47 47 47 47 47 47 47 47 47 47 46 46 47 47 46 43 41 39 47 49 27 13 8 8 26 31 28 26 24 21 19 22 18 16 18 20 22 23 24 23 24 24 21 19 20 25 19
47 47 47 47 47 47 47 47 47 46 46 45 46 47 46 43 43 44 48 41 16 8 8 21 24 31 27 23 23 22 22 20 21 14 18 16 17 21 24 22 23 23 21 21 21 20 25
47 47 47 48 47 47 47 47 47 47 46 45 45 42 44 44 44 44 40 30 17 11 5 6 21 27 28 23 20 20 20 18 19 17 17 15 15 19 21 22 22 24 22 25 24 23 19
47 47 47 48 48 47 47 47 47 47 46 46 43 38 41 44 45 43 34 30 17 10 4 12 11 21 23 21 19 20 18 17 18 16 17 18 15 18 21 24 24 28 26 22 20 20 17
47 47 47 47 47 48 47 47 47 47 46 45 41 37 37 44 45 40 29 28 27 13 14 14 18 9 20 24 19 20 18 18 19 17 18 18 18 20 26 24 20 24 26 24 26 26 20
46 47 47 47 48 47 48 47 47 47 47 45 40 32 38 45 35 34 29 29 29 21 16 22 30 16 23 25 20 21 18 19 19 19 19 19 19 20 22 19 20 23 22 23 20 18 20
44 44 44 45 45 46 47 47 47 47 47 43 36 36 42 43 29 29 25 28 29 25 17 22 27 30 30 29 23 22 21 22 21 20 21 20 19 17 17 24 24 22 24 24 23 21 22
43 43 43 44 44 45 45 47 47 47 47 43 37 30 38 40 32 27 22 21 23 28 23 22 24 30 33 32 30 24 21 24 27 23 24 25 19 19 16 18 20 19 19 21 22 23 21
41 41 42 43 44 44 45 45 47 48 47 42 37 32 36 30 33 27 23 21 20 19 24 22 24 25 31 29 27 28 25 28 29 27 27 23 19 19 17 16 16 16 17 18 19 20 19
42 42 42 43 43 44 45 47 48 48 46 40 33 29 33 30 33 28 24 20 20 18 20 26 23 24 26 29 29 29 28 27 24 26 27 24 22 21 17 18 16 15 14 14 13 14 15
43 43 43 43 43 43 44 45 45 48 46 39 38 30 31 30 30 28 26 20 17 19 20 21 21 24 25 32 34 34 33 32 33 31 25 25 26 21 20 19 18 18 17 15 15 16 16
44 44 43 43 43 44 43 45 45 47 45 40 38 30 34 27 30 27 24 22 19 19 17 21 23 25 28 34 33 32 31 31 30 28 33 26 25 25 24 27 21 21 20 19 18 18 17
43 44 44 44 45 45 44 44 44 44 45 41 37 33 33 31 26 24 24 23 19 19 20 22 28 26 34 32 28 24 25 28 28 28 30 35 29 25 26 24 21 19 23 21 19 17 18
44 44 43 43 43 45 43 44 45 45 45 42 39 37 33 30 24 24 23 23 21 20 22 22 29 36 33 31 27 17 14 19 23 28 28 31 35 31 30 24 21 21 22 23 22 20 21
45 45 43 43 44 43 44 44 44 44 44 43 39 41 37 29 26 28 25 23 23 22 24 24 33 37 36 33 31 19 13 9 15 27 32 33 35 34 29 27 23 22 22 23 23 22 21
45 45 43 43 44 44 44 44 45 45 44 43 39 42 39 31 29 32 32 25 23 23 25 27 32 34 35 32 27 22 24 16 14 20 32 32 31 34 32 30 27 29 27 24 27 26 27
44 44 43 43 44 44 44 44 44 44 44 44 40 43 41 36 36 37 40 34 37 23 26 29 33 30 30 26 27 26 29 33 21 23 28 32 31 30 30 29 32 30 28 30 28 30 31

GFSGBSN_sfc_30mbdewp_066.txt.gz
Dewpoint
45 46 46 47 48 49 51 50 48 48 48 48 46 48 49 49 49 53 53 53 55 57 57 56 56 55 51 38 34 41 45 49 38 32 29 28 22 17 14 14 14 13 13 11 13 13 14
45 45 46 45 45 46 47 49 51 48 46 47 47 46 47 49 50 52 52 52 52 55 57 56 56 55 49 37 34 28 34 43 34 31 29 28 21 16 13 15 18 16 17 16 15 14 16
46 47 47 46 46 45 45 48 50 51 49 46 46 46 47 47 49 50 51 52 52 52 56 56 56 52 47 38 36 32 31 31 35 32 29 25 21 15 22 20 20 19 17 16 15 17 18
46 48 47 47 46 45 44 46 48 49 50 49 45 44 46 45 46 49 49 51 51 52 55 56 55 50 42 35 34 33 33 29 29 33 30 25 20 22 23 24 22 19 18 14 15 18 22
46 46 46 48 48 47 47 46 47 48 49 50 49 46 45 46 45 48 49 50 51 51 54 55 51 48 36 32 34 33 28 27 27 32 28 26 24 23 24 22 20 16 12 11 14 23 23
43 45 45 46 46 48 48 47 47 47 48 49 49 48 45 46 46 46 49 48 47 51 52 51 48 40 37 26 26 29 28 26 24 31 28 26 25 23 23 21 17 16 15 16 12 22 23
42 43 44 45 46 46 47 48 48 47 47 48 49 49 48 45 46 46 46 43 42 48 48 40 34 33 21 29 25 25 25 25 24 29 26 25 22 20 21 22 23 19 16 16 19 22 23
45 46 45 45 45 46 44 45 47 48 47 46 48 48 49 47 46 47 45 41 29 41 37 39 42 38 34 31 29 26 26 22 23 26 26 24 23 22 22 21 20 20 18 15 17 21 19
46 47 47 46 46 46 45 46 46 47 47 47 47 48 48 47 47 45 41 39 38 42 36 27 25 21 28 30 27 27 25 20 22 24 24 24 23 24 21 21 19 19 15 20 23 21 20
47 47 47 47 47 48 47 47 47 47 48 47 46 48 48 47 42 40 37 38 39 43 32 10 14 23 20 24 20 27 27 20 20 21 22 22 22 23 21 21 20 18 18 21 18 18 15
47 47 47 48 48 48 48 48 47 47 47 47 47 48 48 46 38 40 40 44 42 46 9 2 11 29 26 23 16 21 26 24 18 20 20 20 20 21 22 19 21 21 25 25 20 17 18
46 47 48 48 48 48 48 48 48 47 47 47 47 48 48 46 44 41 42 45 46 32 5 7 27 27 25 22 19 15 24 27 22 20 20 19 21 20 20 21 22 21 21 23 22 20 18
47 47 47 47 47 48 48 48 48 47 47 47 47 47 46 44 42 40 44 44 32 15 2 -0 22 26 24 24 21 18 19 23 19 16 18 18 19 20 20 20 21 21 20 19 20 20 20
47 47 47 47 47 48 48 48 48 48 48 47 47 47 44 42 44 44 44 38 22 11 9 14 9 24 24 25 25 23 18 18 22 16 18 18 17 19 21 21 20 22 20 21 22 27 28
46 47 47 47 47 48 48 48 48 48 48 47 46 45 41 41 43 46 40 29 24 16 10 10 18 21 26 24 22 24 20 18 19 19 17 17 16 18 21 22 21 23 23 22 32 33 31
46 46 47 47 47 47 48 48 48 48 48 47 44 42 40 41 45 44 35 29 22 23 17 12 7 19 22 23 22 20 20 22 18 19 21 17 18 18 20 22 20 20 25 22 25 27 19
45 46 46 46 47 47 47 48 48 48 47 47 43 37 39 40 44 40 30 28 27 22 20 13 10 9 7 18 21 18 20 22 24 22 23 20 20 19 19 18 18 19 24 28 23 20 22
45 45 45 46 46 47 47 47 48 48 48 46 41 33 39 43 35 35 30 30 28 18 22 22 19 9 12 14 20 18 18 21 21 23 20 21 20 21 19 20 22 20 21 26 24 24 26
45 45 46 46 46 47 47 47 48 48 48 44 36 36 39 42 29 30 31 26 28 22 21 21 20 17 24 24 18 24 20 25 24 23 24 23 20 18 23 22 22 17 20 23 23 24 23
46 46 46 45 45 45 47 48 48 49 48 44 37 30 37 39 34 30 28 25 25 26 22 22 21 21 24 26 26 28 23 24 28 28 27 28 21 19 21 24 22 18 19 25 25 24 25
43 43 44 44 45 45 45 46 47 48 48 44 37 33 35 30 32 31 27 23 23 20 22 24 24 22 24 22 25 25 27 24 26 28 27 26 22 22 19 20 19 20 19 18 16 22 25
42 42 42 42 43 43 43 44 46 48 48 42 32 29 32 26 33 30 29 25 21 19 19 20 23 24 29 27 24 18 22 26 28 26 26 26 24 24 22 20 19 18 17 18 17 16 18
42 43 43 43 42 42 42 43 44 45 48 40 39 33 32 29 32 31 29 28 22 20 17 18 19 24 27 32 39 36 36 34 33 32 27 27 26 23 22 21 19 17 19 16 16 17 16
43 44 44 44 44 42 42 43 43 44 46 42 39 32 31 27 32 30 28 27 23 21 19 17 18 25 28 34 41 39 33 32 32 30 31 31 28 25 26 25 20 22 21 18 18 18 17
44 45 45 44 44 44 42 43 43 44 45 43 40 35 32 30 28 29 26 26 25 23 20 19 20 20 39 39 37 30 29 29 29 29 29 31 35 27 25 25 23 21 22 21 20 19 20
44 43 43 43 44 44 43 43 44 44 44 45 41 37 35 32 27 26 27 25 25 24 21 21 21 32 38 36 35 26 25 25 21 29 31 30 35 33 27 25 24 26 24 23 24 20 22
43 42 43 44 44 44 44 43 43 44 44 42 42 41 39 34 32 33 27 27 26 25 23 22 26 32 36 36 33 27 23 23 22 29 31 32 31 30 29 27 27 26 26 24 21 24 26
44 45 44 44 44 44 44 43 43 44 45 42 42 42 41 37 35 37 33 29 26 25 24 25 27 37 33 33 32 27 23 21 16 20 31 32 30 30 31 28 26 29 26 23 27 30 29
45 45 45 44 43 44 45 43 44 44 45 42 41 44 45 39 38 40 42 39 33 25 27 28 29 37 31 29 29 27 26 26 19 13 25 31 32 30 30 30 32 32 29 31 33 35 33

GFSGBSN_sfc_30mbdewp_069.txt.gz
Dewpoint
45 46 46 46 46 47 47 48 50 52 50 48 47 45 45 47 48 50 51 52 52 52 53 55 56 56 53 45 42 43 48 47 39 30 26 25 27 26 20 18 16 16 18 14 14 12 15
48 47 47 47 47 45 45 46 48 50 49 50 47 46 46 44 46 48 50 50 51 52 52 54 57 56 51 39 41 37 39 44 33 31 29 29 29 26 21 17 16 20 20 19 17 16 16
45 47 48 49 48 47 45 46 47 48 49 49 49 48 44 44 45 45 47 49 49 50 52 53 56 55 48 40 41 39 36 34 41 37 31 30 29 27 22 17 24 24 23 21 19 18 15
45 45 46 46 47 49 48 47 47 47 48 49 49 48 46 43 43 44 46 48 49 49 50 53 55 52 44 43 43 42 41 36 34 34 35 32 31 27 20 25 24 24 22 18 19 19 18
46 45 45 46 47 47 47 49 48 47 47 48 49 48 48 47 43 43 44 47 48 48 49 52 52 50 43 42 40 39 35 32 32 29 32 31 28 25 24 21 23 23 20 18 16 17 20
43 44 45 46 46 46 47 47 48 49 48 48 48 49 48 48 47 43 43 46 45 47 47 51 50 43 43 31 32 31 35 32 28 27 31 29 26 23 23 23 20 21 21 19 16 22 24
42 43 43 45 46 46 46 46 46 47 49 48 48 48 50 48 48 46 45 42 41 45 46 44 43 38 27 32 34 27 30 27 27 26 28 28 24 22 23 23 23 22 21 19 18 22 23
43 42 44 45 46 46 46 46 46 46 46 49 48 48 49 49 48 46 46 40 39 39 37 45 45 43 38 38 34 31 26 26 25 21 29 28 24 24 24 24 23 23 21 19 22 23 21
44 45 45 45 46 47 47 47 47 47 47 46 48 48 48 48 48 46 43 40 40 40 37 36 36 38 41 38 36 32 29 25 23 21 27 27 25 25 24 23 22 21 19 19 21 23 24
44 45 46 46 46 47 47 47 47 47 48 47 47 48 47 48 43 42 40 41 42 40 35 27 25 26 27 22 30 32 30 26 21 19 25 26 27 25 25 23 22 19 20 20 23 23 18
45 46 46 47 47 47 48 48 48 48 48 48 48 48 47 47 43 41 41 43 44 44 9 7 11 24 22 20 21 23 29 27 20 19 24 24 25 25 24 23 23 20 25 23 25 23 20
45 46 46 47 47 48 48 48 48 48 48 48 48 47 48 46 46 44 44 44 45 34 17 10 26 26 24 19 20 22 23 25 24 19 21 22 23 23 23 23 23 21 22 24 24 23 19
45 46 46 47 48 48 48 48 49 49 49 48 48 48 47 43 40 44 45 42 33 23 12 1 26 26 26 21 20 21 20 20 22 19 17 19 21 21 22 20 23 21 20 19 20 21 19
45 46 46 47 48 48 48 48 48 49 49 48 48 48 47 44 43 44 44 36 25 23 17 13 17 25 24 24 22 21 18 19 24 22 19 18 18 20 21 20 20 21 21 20 19 21 28
45 46 46 47 47 47 48 48 48 49 49 49 48 46 45 44 43 45 40 28 22 23 16 17 13 16 24 23 25 22 21 21 24 25 18 17 18 20 19 22 21 23 21 25 30 33 31
46 45 46 46 46 47 47 48 48 48 49 49 46 44 41 44 43 42 35 28 26 24 21 17 15 16 23 26 24 24 24 25 23 24 25 21 18 21 21 22 22 22 26 25 32 26 28
45 45 46 46 46 47 47 48 48 48 48 49 45 38 41 43 44 36 28 28 29 28 26 21 19 20 19 22 26 23 23 24 23 21 22 21 21 22 23 21 20 21 20 25 31 30 24
45 45 45 45 45 46 46 47 48 48 48 48 42 32 41 42 34 32 28 28 29 25 26 24 23 21 22 22 21 22 22 22 24 24 20 22 27 24 23 23 23 22 20 25 27 25 27
44 45 45 45 45 46 46 46 47 47 48 45 37 36 41 40 28 28 30 28 29 27 27 23 21 19 20 22 21 28 24 26 25 24 24 26 28 26 23 23 21 20 22 22 28 30 27
45 45 45 45 46 46 46 46 46 47 48 46 36 30 37 38 33 27 26 26 28 29 30 27 24 22 22 24 24 29 32 28 27 26 29 29 27 26 22 26 25 21 21 22 24 23 24
44 44 45 45 46 45 46 47 47 48 48 46 35 32 34 30 31 31 27 26 25 26 27 27 24 25 24 23 27 28 35 37 29 30 28 28 25 26 26 27 27 25 22 20 20 26 25
42 42 42 43 43 44 44 45 46 46 48 43 32 34 33 29 33 32 30 29 27 26 24 25 25 24 24 25 27 33 38 35 34 26 26 29 25 26 24 26 24 25 24 20 20 19 20
42 42 42 42 42 43 44 44 45 46 47 42 38 36 32 29 31 31 29 29 30 26 25 23 23 23 22 25 37 40 40 40 37 32 26 26 25 25 24 26 24 24 24 26 25 20 19
43 43 43 43 43 43 43 43 44 45 46 42 37 35 34 28 32 30 29 29 28 27 25 24 21 22 22 36 42 41 40 39 35 34 34 31 25 27 26 25 21 23 24 25 23 21 20
44 44 44 44 44 43 43 43 43 43 45 43 40 37 35 31 27 31 29 29 29 27 28 24 24 20 23 37 33 33 34 35 31 31 33 32 33 27 26 23 25 25 23 22 22 21 21
43 43 45 44 44 44 43 43 43 43 44 43 41 42 37 32 28 28 30 28 27 26 27 28 28 23 26 30 32 29 27 30 27 29 32 31 32 31 30 23 20 26 28 28 25 20 25
44 43 43 44 45 45 45 44 44 42 43 43 40 42 41 33 32 30 30 29 29 28 26 27 26 26 33 29 27 29 28 31 24 25 26 28 28 27 28 29 28 29 27 28 23 22 25
44 44 44 44 44 44 44 45 44 43 43 43 41 42 41 36 35 35 32 30 29 29 27 28 25 27 32 28 29 30 27 29 25 30 28 28 27 27 30 30 28 31 27 24 27 27 27
44 45 45 44 43 43 43 43 44 43 43 43 38 43 47 41 38 42 40 41 40 39 31 29 26 31 35 32 35 29 26 23 22 17 33 28 32 30 31 30 33 34 34 32 34 33 35

GFSGBSN_sfc_30mbdewp_075.txt.gz
Dewpoint
46 47 48 49 49 49 48 47 47 47 47 48 49 49 48 48 45 45 45 46 47 48 48 48 49 51 52 43 37 42 49 48 41 32 25 22 24 27 25 23 21 18 18 18 18 21 23
45 46 46 47 47 46 47 48 49 48 47 48 48 49 49 48 48 45 45 46 46 47 48 48 48 50 48 29 34 39 40 47 37 29 26 22 20 27 26 25 22 20 19 22 24 23 23
44 45 45 47 47 47 46 48 48 49 49 49 49 49 49 49 48 47 47 46 45 46 47 47 47 48 43 30 38 41 42 37 36 34 28 28 24 27 28 25 26 23 21 21 20 22 21
44 45 45 46 46 47 47 47 47 47 48 49 49 49 48 48 49 49 48 47 48 47 46 47 47 47 39 42 44 43 43 42 42 41 35 34 32 28 28 27 25 22 21 17 19 20 21
44 44 44 45 46 46 46 46 47 46 46 48 49 50 48 48 49 49 48 48 47 48 47 47 47 46 34 42 42 44 44 38 33 36 36 34 34 31 30 25 22 22 14 17 17 22 22
44 44 43 43 45 45 45 46 47 48 48 48 48 49 50 49 48 48 48 47 45 47 46 46 48 40 37 22 33 37 43 39 27 31 31 31 30 28 27 25 17 17 19 20 19 22 22
43 43 42 42 43 42 43 44 47 48 48 48 48 48 49 50 48 47 48 41 29 38 39 34 39 35 33 37 40 36 35 35 30 29 26 29 26 25 26 26 22 21 22 21 21 22 23
43 43 43 41 41 42 42 43 46 48 49 49 48 48 48 49 47 47 46 39 37 38 34 36 35 36 40 42 39 34 36 31 28 25 26 26 25 26 26 25 24 22 21 20 22 23 23
43 43 41 40 41 41 42 44 46 47 48 48 49 49 48 48 47 44 43 39 41 41 36 35 33 28 26 35 36 32 35 29 26 26 25 24 25 27 26 25 23 23 21 20 20 23 23
42 42 41 41 41 41 43 45 46 47 48 48 48 48 48 47 41 42 40 43 43 43 25 14 29 28 30 32 33 34 33 27 26 23 25 25 25 26 26 24 24 20 21 23 23 22 19
41 39 41 40 40 44 45 46 45 47 48 49 47 47 47 46 38 40 42 41 40 41 -19 -1 20 30 34 26 24 32 32 28 25 23 23 22 23 23 24 26 25 22 22 23 23 23 23
40 40 40 40 42 44 45 46 46 47 48 48 48 48 47 46 45 42 44 41 44 28 -11 -3 16 29 30 30 24 30 31 27 25 23 23 22 26 26 24 25 27 26 25 25 26 24 21
41 41 40 41 42 43 45 45 46 47 48 47 47 47 46 46 40 43 42 42 30 21 18 6 18 19 23 25 26 20 28 24 20 17 21 21 20 22 26 26 27 26 23 20 18 19 19
39 41 41 41 42 43 44 45 45 47 48 48 47 47 47 46 42 42 39 34 23 19 16 18 18 17 15 22 20 19 23 22 23 22 20 19 18 20 21 23 22 23 24 21 17 17 18
39 40 41 42 42 43 44 45 46 47 47 48 47 47 46 47 45 43 35 25 20 22 22 22 22 17 11 23 25 22 19 20 19 23 18 19 19 21 20 22 22 21 21 23 25 33 28
38 40 41 41 42 43 44 45 46 47 47 46 45 44 44 46 45 42 31 20 23 25 25 21 20 21 17 20 25 26 25 23 20 17 24 23 17 20 21 21 22 21 27 23 28 20 21
40 41 41 42 42 43 44 45 46 47 47 47 44 38 44 47 45 36 24 24 25 26 26 25 21 20 22 22 25 28 25 25 25 22 19 22 24 20 20 20 20 23 23 28 27 26 19
40 41 41 42 43 43 44 45 46 47 47 46 42 33 45 45 32 32 28 24 26 28 29 26 27 26 25 23 22 28 27 26 26 35 26 23 24 21 22 24 25 23 23 28 23 28 29
41 41 42 43 43 44 44 45 45 46 47 45 37 35 45 41 28 28 29 29 25 26 26 26 27 27 24 21 20 25 27 29 31 35 27 27 24 21 21 22 24 24 24 23 28 32 28
43 43 43 43 43 44 44 45 45 46 47 45 33 29 36 39 36 29 28 29 26 26 28 30 27 27 28 24 23 22 25 30 38 36 39 36 25 22 19 20 21 23 24 25 24 24 27
43 43 44 44 44 44 44 45 45 46 47 45 33 31 34 29 31 30 29 27 27 25 26 25 25 27 26 26 23 22 23 29 31 36 39 31 24 24 23 21 25 26 25 26 25 24 22
44 44 44 43 44 45 45 46 46 46 47 42 30 32 36 32 33 32 30 28 27 26 25 25 26 27 27 24 25 21 25 28 33 37 37 36 27 26 22 23 24 25 26 28 27 28 25
42 42 42 42 42 43 43 43 44 45 46 40 39 37 36 32 33 30 28 28 29 28 27 25 28 28 27 27 28 28 27 35 38 37 36 36 32 28 24 27 28 26 27 26 28 30 29
42 42 42 42 42 42 42 42 43 43 45 43 40 38 34 29 32 30 29 28 28 28 26 28 27 25 27 29 30 30 26 30 36 37 40 36 35 30 25 27 24 28 31 30 29 30 31
42 42 42 42 42 42 42 43 43 43 43 42 43 39 35 30 33 32 31 29 28 28 28 27 28 29 30 29 25 24 25 30 33 34 35 38 36 32 29 24 25 28 30 29 30 29 32
43 43 43 43 43 43 43 43 43 43 43 42 42 42 39 32 31 31 31 30 28 27 27 29 32 32 29 27 25 21 20 26 27 30 35 37 36 33 32 26 23 25 26 29 31 27 31
43 44 44 44 44 44 44 44 44 44 43 42 40 43 38 32 34 32 32 31 29 28 27 28 29 29 30 28 26 23 22 31 25 25 30 32 33 31 32 30 28 29 31 32 29 28 32
45 44 44 45 44 44 45 44 44 44 43 42 39 43 36 33 35 34 33 31 30 29 26 28 27 28 29 25 25 24 23 24 22 26 28 26 28 28 30 28 27 34 33 28 32 34 35
45 45 45 44 44 44 44 44 44 44 43 43 38 42 41 37 37 41 36 33 31 30 28 29 25 28 29 26 26 26 24 26 24 19 29 25 28 24 28 28 31 38 36 39 39 37 36

GFSGBSN_sfc_30mbdewp_081.txt.gz
Dewpoint
46 45 45 46 46 46 46 47 47 48 48 48 49 48 48 48 47 47 48 49 48 47 47 47 47 47 48 32 12 38 43 51 50 41 28 26 27 28 27 26 22 22 22 21 21 20 19
45 45 45 45 45 43 44 46 47 47 47 48 49 49 48 48 48 48 48 49 48 48 46 47 47 47 46 19 19 39 39 39 37 31 28 25 24 25 24 26 22 24 21 20 22 24 24
42 45 45 45 46 45 44 45 46 46 46 46 47 48 49 47 48 48 48 49 49 48 47 46 47 46 42 23 30 34 38 35 35 34 27 26 23 27 26 25 26 25 23 24 23 22 21
45 44 44 45 45 45 45 45 46 46 46 46 47 48 49 49 49 49 49 49 49 48 47 46 46 45 35 40 42 41 40 38 38 33 31 31 34 27 26 27 26 24 23 19 19 21 21
47 47 45 44 44 46 45 45 46 45 45 46 49 49 49 50 49 49 49 49 48 47 48 48 45 42 27 37 38 37 39 34 41 39 33 33 33 31 29 23 22 23 15 17 16 19 20
44 44 45 45 44 44 45 45 44 45 45 47 48 49 49 49 49 49 49 46 44 46 47 46 44 35 31 14 33 37 43 42 34 37 32 31 32 30 30 24 16 18 19 20 17 19 22
41 43 44 44 43 43 44 44 44 44 44 46 48 49 49 49 49 49 47 39 35 32 37 32 33 32 32 38 39 39 42 38 33 30 22 32 28 27 27 27 22 22 19 17 19 22 21
42 42 42 44 43 42 42 42 43 44 43 46 47 48 49 49 48 49 43 35 38 38 34 36 35 35 36 37 30 29 35 30 29 24 28 28 27 28 27 29 27 22 20 18 21 22 22
41 40 42 42 41 41 42 40 42 42 43 46 47 48 49 48 48 43 40 37 42 40 36 33 36 35 32 31 29 26 30 32 27 25 25 21 26 28 27 26 27 26 24 23 21 22 22
40 41 42 42 40 42 41 40 41 40 44 46 47 48 48 47 43 41 38 43 41 42 28 19 26 30 29 30 25 28 22 21 29 25 25 24 23 24 26 23 25 21 25 25 24 22 16
41 42 43 43 41 41 41 42 40 41 42 44 46 48 48 46 38 38 41 42 42 41 -6 7 27 29 29 23 20 31 28 22 10 23 26 24 24 22 22 25 26 22 25 24 24 22 21
40 39 41 42 41 41 41 41 40 41 42 43 46 47 46 45 44 42 42 43 44 27 -2 5 28 30 25 26 25 32 30 28 24 17 20 22 26 25 20 23 27 27 24 24 26 23 18
38 39 40 41 41 41 41 41 41 40 42 43 45 47 46 46 41 44 44 40 26 19 16 15 18 21 20 24 28 27 28 24 22 14 11 16 19 24 25 23 27 25 24 19 21 21 14
40 41 41 42 41 40 40 39 40 41 43 44 45 46 46 45 43 42 40 28 21 19 21 22 21 21 14 20 24 26 26 24 23 22 13 12 10 21 24 22 23 25 24 17 11 16 15
33 37 40 38 39 40 40 40 40 41 42 43 44 43 44 45 44 42 34 23 17 21 23 22 19 16 17 22 25 27 24 23 23 22 14 12 11 17 22 25 24 26 23 23 22 30 25
37 35 38 39 40 40 39 40 40 41 42 43 41 40 39 46 45 40 31 23 21 25 26 25 16 22 19 21 23 26 25 26 25 30 25 23 17 20 20 22 23 24 27 23 23 16 16
37 37 37 38 39 39 39 40 41 41 42 43 41 36 38 47 45 37 26 25 22 21 21 25 24 22 24 23 23 27 25 27 32 33 31 26 23 22 24 20 19 20 22 26 24 23 15
36 37 37 38 39 40 41 40 41 41 43 42 38 30 42 46 33 32 29 27 25 25 25 21 26 26 24 24 22 22 24 25 35 35 34 36 30 19 19 23 23 21 20 22 23 25 26
38 39 39 40 40 41 41 42 42 42 43 40 33 33 42 41 27 28 32 31 26 24 24 27 23 26 27 23 17 22 25 28 32 31 31 31 32 23 18 17 18 20 23 22 21 27 24
39 40 40 40 41 41 41 42 42 42 43 41 35 28 35 39 36 30 27 30 29 27 25 28 28 28 27 26 26 23 24 24 26 23 35 31 32 32 24 23 26 16 22 25 24 23 21
40 41 42 42 42 42 42 43 44 43 44 42 35 29 32 28 30 32 30 27 27 26 27 25 24 27 26 25 25 24 23 22 23 25 37 34 23 26 32 31 32 30 22 21 24 26 23
41 42 43 42 43 43 42 43 43 43 44 40 31 31 34 30 31 32 29 27 25 28 26 25 24 25 25 26 26 21 22 23 23 27 24 32 30 33 30 31 31 29 26 21 25 24 25
42 42 42 42 42 42 43 44 45 44 44 38 38 37 35 31 32 30 30 28 27 27 28 26 25 25 28 29 29 28 28 27 26 26 26 26 32 30 24 31 32 26 25 23 22 25 25
42 42 42 42 41 41 42 41 42 43 44 41 38 37 33 29 30 30 31 30 27 27 28 28 27 29 30 31 30 30 30 29 29 28 28 27 30 31 26 31 23 26 30 27 25 25 29
42 42 41 41 42 42 42 42 42 41 43 43 41 37 33 28 32 29 30 31 30 32 31 30 30 31 34 34 29 26 25 26 26 28 29 30 27 29 27 27 29 30 31 31 28 26 29
42 42 42 42 42 42 42 42 42 42 41 40 41 41 38 31 29 31 31 31 30 30 33 33 32 35 34 32 29 23 19 23 22 26 29 29 28 31 30 25 20 27 31 33 33 27 33
42 42 43 42 43 42 42 42 42 42 42 40 39 40 36 32 32 33 31 33 33 32 31 31 33 34 35 30 26 22 21 23 18 24 29 30 31 28 28 27 27 31 33 35 26 27 35
43 44 44 44 45 44 43 43 43 43 42 41 38 42 36 32 34 36 35 34 32 31 29 31 31 33 32 28 27 28 26 24 20 20 27 29 28 28 29 27 24 34 35 30 34 38 38
44 44 44 44 45 45 44 44 44 43 43 42 37 42 40 35 36 42 40 39 32 32 30 32 29 30 31 29 29 28 26 26 24 17 24 19 29 28 30 28 32 35 35 38 41 40 38

GFSGBSN_sfc_30mbdewp_087.txt.gz
Dewpoint
44 47 46 46 45 45 45 42 45 45 45 44 45 45 45 46 46 47 48 49 48 47 47 48 48 47 42 27 22 26 37 49 44 41 32 26 26 23 22 18 17 18 16 16 12 15 14
47 45 44 44 46 44 44 46 45 44 44 45 45 46 47 47 48 48 49 49 49 48 48 47 48 47 35 26 14 11 22 25 25 35 31 27 26 25 21 20 19 18 15 17 18 16 18
43 46 48 47 46 44 44 44 44 45 45 45 45 46 47 47 48 49 49 50 50 49 48 47 47 44 33 23 17 17 26 20 25 23 27 32 29 26 25 24 22 20 19 20 19 19 19
46 44 43 47 48 47 46 44 44 44 44 45 44 46 48 49 49 50 50 50 50 49 49 47 48 42 30 24 22 23 23 18 24 29 27 28 30 29 27 24 24 22 21 19 20 20 19
45 46 45 45 45 47 46 46 46 44 43 43 43 44 47 49 49 49 49 49 49 49 47 48 44 38 24 27 23 21 20 16 13 15 18 15 18 26 26 23 22 22 19 19 18 20 18
41 43 43 45 43 44 46 46 45 45 44 43 43 44 47 48 49 49 49 47 44 45 45 42 38 36 32 10 17 30 37 17 14 21 16 13 5 13 13 14 16 17 18 16 16 19 19
41 41 39 41 42 43 43 46 43 44 44 42 43 44 46 48 48 49 46 38 31 35 37 29 26 28 19 20 23 18 37 38 36 33 17 12 -0 10 13 13 13 17 15 14 18 19 18
39 41 43 41 42 41 40 44 42 44 43 43 43 44 46 47 48 49 45 35 33 37 32 29 27 25 24 22 20 20 26 30 30 26 22 11 6 10 17 15 16 18 16 17 18 19 19
43 44 40 41 41 40 40 42 43 43 42 42 42 44 46 47 47 44 38 34 36 39 31 23 24 25 25 26 22 19 19 29 26 24 17 17 16 15 16 17 21 18 19 20 18 19 19
39 41 38 38 42 43 43 43 43 42 42 42 42 43 45 46 42 36 35 37 38 42 25 9 22 24 27 26 22 23 17 23 23 19 16 17 17 19 18 17 19 19 22 20 18 18 16
37 39 38 38 40 40 41 42 42 41 40 41 42 43 44 45 41 38 38 39 41 41 -4 12 18 28 27 22 19 23 27 15 17 18 19 16 19 19 20 19 17 20 20 20 19 16 17
38 37 37 37 40 39 41 43 43 41 41 41 41 41 43 38 39 38 38 42 40 27 1 3 20 24 24 24 19 29 25 18 12 12 18 21 22 22 18 21 24 24 20 20 19 17 17
37 39 39 39 39 41 41 42 42 41 41 40 41 42 41 38 36 43 44 41 24 11 6 1 18 22 17 21 24 25 23 19 15 9 11 14 12 20 22 21 23 22 20 18 18 18 17
39 38 36 36 36 36 42 42 42 41 40 40 42 43 37 36 38 41 42 33 19 7 7 15 15 17 12 16 23 25 25 21 22 16 13 4 0 -1 14 17 18 20 20 18 15 16 18
35 36 37 36 36 36 38 42 41 41 41 41 41 34 33 37 40 43 37 25 15 12 11 15 15 13 10 17 22 23 24 20 22 21 16 9 7 7 -0 6 13 14 18 20 17 19 20
37 37 34 36 36 37 39 39 40 40 40 41 34 32 31 34 40 41 32 25 16 18 22 19 16 15 10 15 18 19 21 26 25 29 28 21 16 13 9 12 7 7 4 12 15 13 14
34 35 35 37 38 39 40 40 40 40 38 39 34 31 29 35 41 36 27 27 20 24 21 22 17 16 15 16 16 13 15 26 27 27 31 27 22 18 16 14 13 11 8 12 16 16 12
35 36 36 38 40 39 39 39 39 39 39 38 33 27 28 39 32 30 26 26 30 26 19 18 22 21 20 16 16 16 14 19 25 25 26 31 30 20 17 17 18 16 14 13 14 15 14
37 38 38 38 37 38 39 39 39 40 40 32 30 29 32 39 24 25 22 27 31 27 24 20 15 16 16 17 15 17 18 23 25 21 24 23 28 21 18 17 19 18 19 19 18 18 17
37 37 38 37 38 39 39 40 41 40 40 38 33 27 27 35 31 29 23 19 21 31 30 20 21 18 18 18 19 21 19 21 25 23 23 24 18 18 19 26 25 21 18 20 19 18 18
39 40 40 40 40 40 40 41 41 42 41 39 33 28 23 27 26 24 23 24 24 20 30 25 25 24 19 17 19 21 23 22 24 23 23 21 19 16 15 14 16 21 21 22 21 21 20
41 41 41 41 42 41 41 42 42 42 41 38 30 28 24 20 18 24 21 21 20 28 30 26 24 21 19 18 18 25 30 28 27 25 25 29 23 23 20 19 18 17 19 19 20 20 21
42 42 42 43 42 42 42 43 44 43 41 37 35 32 30 24 22 19 19 23 20 22 22 24 23 20 20 23 23 27 27 28 27 28 26 26 25 25 20 16 23 20 17 19 23 27 25
42 42 42 43 42 43 42 42 43 44 43 39 38 35 29 25 24 24 19 19 21 20 21 25 22 21 25 33 31 29 28 28 29 27 26 27 24 26 22 19 13 14 29 31 32 32 33
43 42 42 42 42 43 43 43 42 42 44 41 40 37 33 27 22 20 23 22 20 24 26 27 24 29 37 34 29 25 24 25 25 25 25 26 25 27 22 17 15 15 22 25 27 27 35
41 42 42 42 42 42 42 42 42 42 42 43 40 41 36 31 25 21 19 20 24 25 26 25 32 39 36 34 31 21 20 19 18 20 23 24 25 24 21 17 15 27 28 35 34 30 40
41 41 41 42 42 42 41 42 42 42 42 40 40 41 39 33 28 24 22 24 28 26 25 32 37 36 36 31 27 23 22 18 17 17 25 22 25 23 21 17 21 31 32 36 29 33 38
44 42 42 42 42 42 42 42 42 42 41 42 39 41 38 34 29 30 26 24 25 29 31 37 34 34 32 28 26 22 20 18 16 17 28 24 24 25 22 17 19 30 32 33 37 41 41
45 45 44 43 43 43 43 43 43 42 42 42 37 40 41 35 34 37 33 34 30 26 32 36 28 34 32 30 25 25 23 23 19 18 23 25 27 26 20 20 36 31 37 36 37 37 37

GFSGBSN_sfc_30mbdewp_093.txt.gz
Dewpoint
47 47 47 47 48 47 45 45 46 47 46 45 45 45 45 45 45 46 48 49 50 49 49 49 49 49 46 32 29 34 46 47 47 45 37 34 25 23 22 26 27 25 24 23 21 20 19
45 46 48 48 47 46 47 46 47 47 47 47 47 46 46 44 44 44 46 49 49 49 49 49 49 49 41 23 24 21 28 33 35 33 33 33 30 30 25 25 25 26 26 25 23 21 20
44 45 45 46 47 47 46 48 48 47 46 46 46 46 46 44 44 45 46 49 49 48 48 48 48 47 39 21 24 23 24 24 22 21 18 23 33 29 27 26 26 25 24 24 24 24 21
44 45 45 44 46 47 48 47 47 47 46 46 46 46 45 46 46 46 47 48 48 48 47 47 49 45 36 32 31 28 26 24 21 19 18 20 26 26 28 29 28 26 26 23 23 23 22
43 43 43 44 44 45 46 46 46 46 46 46 46 46 46 46 46 47 48 48 47 47 47 48 47 43 34 33 32 31 29 24 22 19 19 16 24 23 26 27 26 26 24 24 23 24 23
44 43 43 41 42 44 44 44 45 45 46 46 46 45 45 46 46 47 47 46 44 45 45 44 42 40 39 28 23 21 23 25 18 15 16 14 15 17 21 24 23 23 22 23 22 23 23
41 42 41 41 41 42 43 44 44 45 45 46 45 44 44 45 45 46 46 40 33 37 40 38 37 34 29 31 28 21 20 20 26 19 11 12 9 10 12 16 20 20 20 20 20 18 18
43 42 41 40 43 44 44 44 44 43 43 44 44 44 44 43 45 45 43 38 39 37 32 33 32 32 35 35 31 29 25 21 32 13 10 10 9 9 10 9 9 11 14 14 15 16 18
41 42 43 43 43 43 44 42 43 44 43 44 44 43 43 44 44 41 37 36 40 39 33 27 27 27 28 27 27 26 20 18 20 29 24 16 21 16 10 8 4 2 7 14 17 20 25
39 41 42 40 41 39 39 39 42 42 43 44 43 43 43 43 38 38 39 39 41 41 28 22 21 20 22 21 20 21 20 18 17 13 24 26 26 23 18 8 9 3 2 6 14 23 23
39 40 40 40 40 40 41 40 41 40 42 43 43 43 42 42 37 33 36 37 40 40 -2 12 18 23 19 20 19 19 23 19 16 15 19 20 22 21 20 17 16 12 10 9 25 24 27
38 40 41 40 41 40 40 40 40 41 42 43 42 42 42 39 39 35 36 41 39 26 7 10 21 20 21 22 21 23 22 22 20 16 15 16 18 17 17 19 20 19 19 23 26 26 26
38 38 40 39 40 40 39 39 39 39 41 42 42 42 40 37 33 36 39 39 26 21 15 3 17 19 22 22 21 22 25 23 15 11 11 12 12 13 17 16 20 21 19 19 21 22 22
36 38 38 40 40 40 39 39 39 39 42 41 41 41 41 38 37 35 36 33 21 18 15 19 22 20 17 18 20 18 23 20 22 14 9 9 8 10 11 14 19 20 20 20 18 21 26
35 36 38 38 40 39 38 38 38 39 41 41 41 39 39 38 38 38 34 23 22 18 17 18 23 19 13 16 15 20 15 21 18 16 11 14 13 21 9 10 21 20 19 22 22 22 21
36 36 37 37 36 36 37 38 39 40 40 41 37 35 33 35 38 36 31 23 21 20 19 24 22 23 23 27 24 14 21 25 24 30 22 22 19 23 19 13 18 18 21 19 22 18 14
35 35 36 37 37 37 37 38 40 40 41 39 36 30 30 35 40 32 24 22 20 22 21 20 26 29 29 30 30 25 21 32 35 30 31 32 28 23 21 6 4 11 14 19 18 21 17
34 36 37 37 38 39 38 39 39 40 40 38 33 25 30 37 31 32 25 24 23 21 21 24 31 29 32 30 27 30 31 33 35 28 26 24 29 24 24 25 25 11 7 9 9 11 14
35 36 38 38 38 39 39 40 38 39 39 36 32 28 29 36 24 25 27 23 23 22 20 21 28 31 29 29 25 30 29 29 27 27 23 22 22 22 18 21 30 29 16 13 11 11 10
37 37 38 38 38 38 38 38 39 39 38 37 32 25 26 35 34 30 25 25 22 21 18 18 24 27 27 25 23 21 23 29 27 23 23 23 21 19 18 19 24 20 19 20 27 18 13
38 39 39 40 40 40 40 39 39 40 40 36 31 26 28 26 26 28 26 25 23 22 23 20 25 25 26 26 24 16 18 26 26 29 28 25 19 20 20 19 17 17 15 15 13 28 27
38 40 41 42 42 42 42 41 41 41 39 35 29 26 26 24 24 30 30 23 22 21 24 22 22 22 28 26 26 24 26 28 30 29 28 30 26 27 24 24 22 19 19 17 16 15 17
40 41 42 42 42 42 43 43 42 42 39 35 34 33 29 25 25 25 26 29 23 21 19 21 25 27 25 30 32 32 31 31 32 31 27 27 28 26 23 25 24 20 19 18 18 18 16
40 41 42 42 42 42 43 43 44 43 41 37 35 31 29 21 21 20 20 22 22 22 22 23 30 30 31 36 37 31 29 29 30 30 28 26 27 26 25 23 17 21 20 21 28 35 37
41 42 42 42 42 43 43 43 43 44 43 39 37 34 30 22 22 21 22 24 28 30 25 25 29 34 37 35 29 23 23 24 25 25 25 27 27 25 23 22 21 19 32 35 35 36 38
42 42 42 43 43 43 43 43 43 43 44 42 39 38 34 28 23 23 23 22 25 28 27 27 35 36 38 33 28 20 19 24 20 22 26 26 28 25 24 21 16 27 34 37 32 31 38
42 43 43 44 44 44 43 43 43 43 42 41 39 41 36 30 29 26 24 24 27 26 26 27 33 35 37 31 26 22 20 21 22 25 23 25 26 23 23 24 23 36 36 38 29 32 36
43 43 43 44 45 45 45 43 43 43 42 40 38 40 36 32 31 32 32 30 30 30 30 34 32 34 33 28 26 23 21 24 27 28 27 25 27 25 25 24 20 38 36 33 35 35 35
43 43 43 44 45 45 45 43 43 43 42 41 37 41 40 35 34 38 37 37 37 38 37 36 35 34 32 29 27 27 26 27 31 21 32 27 27 26 26 26 38 39 36 35 36 34 33